This is the latest recevied weather packets stored in our database for station/object SQ9MHX-13. If no packets are shown the sender has not sent any weather packets the latest 1 day(s).
| Time | Temp. | Humidity | Pressure | Rain* | Wind** | Luminosity | Snow |
|---|---|---|---|---|---|---|---|
| 1777973576 | 25° C | 22% | 943.1 hPa | - | 0 m/s | - | - |
| 1777972977 | 25° C | 21% | 943.2 hPa | - | 0 m/s | - | - |
| 1777972378 | 26.11° C | 25% | 943.3 hPa | - | 0 m/s | - | - |
| 1777972079 | 25° C | 21% | 944.1 hPa | - | 0 m/s | - | - |
| 1777970881 | 23.89° C | 25% | 943.3 hPa | - | 0 m/s | - | - |
| 1777970283 | 23.89° C | 30% | 945 hPa | - | 0 m/s | - | - |
| 1777969983 | 23.89° C | 30% | 945.5 hPa | - | 0 m/s | - | - |
| 1777969684 | 22.78° C | 29% | 946 hPa | - | 0 m/s | - | - |
| 1777969385 | 22.78° C | 28% | 946.4 hPa | - | 0 m/s | - | - |
| 1777969086 | 22.78° C | 31% | 946.4 hPa | - | 0 m/s | - | - |
| 1777968786 | 23.89° C | 30% | 946.6 hPa | - | 0 m/s | - | - |
| 1777968487 | 22.78° C | 35% | 947.5 hPa | - | 0 m/s | - | - |
| 1777968188 | 22.78° C | 34% | 947.7 hPa | - | 0 m/s | - | - |
| 1777966991 | 22.22° C | 35% | 947.9 hPa | - | 0 m/s | - | - |
| 1777966692 | 22.22° C | 34% | 947.6 hPa | - | 0 m/s | - | - |
| 1777966094 | 22.22° C | 34% | 949.4 hPa | - | 0 m/s | - | - |
| 1777965794 | 21.11° C | 36% | 950.1 hPa | - | 0 m/s | - | - |
| 1777965496 | 21.11° C | 37% | 951.1 hPa | - | 0 m/s | - | - |
| 1777965196 | 20° C | 41% | 951.6 hPa | - | 0 m/s | - | - |
| 1777964897 | 20° C | 44% | 952.1 hPa | - | 0 m/s | - | - |
| 1777964598 | 20° C | 43% | 952.4 hPa | - | 0 m/s | - | - |
| 1777964299 | 20° C | 43% | 952.8 hPa | - | 0 m/s | - | - |
| 1777964000 | 18.89° C | 39% | 953.1 hPa | - | 0 m/s | - | - |
| 1777963701 | 18.89° C | 46% | 953.6 hPa | - | 0 m/s | - | - |
| 1777963402 | 18.89° C | 47% | 953.8 hPa | - | 0 m/s | - | - |
* Rain since midnight (hover to see other rain measurements)
** Current wind speed in m/s (hover to see current wind gust speed)